Regional Weather Roundup
Issued by NWS

Home | Current Version | Previous Version | Graphics & Text | Print | Product List | Glossary On
Versions: 1 2 3 4 5 6 7 8 9 10 11 12 13 14 15 16 17 18 19 20 21 22 23 24 25 26 27 28 29 30 31 32 33 34 35 36 37 38 39 40 41 42 43 44 45 46 47 48 49 50
000
ASUS43 KTOP 310459
RWRKS

WEATHER ROUNDUP FOR KANSAS
NATIONAL WEATHER SERVICE GOODLAND KS
1200 AM CDT SUN AUG 31 2014

NOTE:  "FAIR" INDICATES FEW OR NO CLOUDS BELOW 12,000 FEET WITH NO
SIGNIFICANT WEATHER AND/OR OBSTRUCTIONS TO VISIBILITY.

KSZ001>006-013>018-027>032-041>047-310600-
NORTHWEST KANSAS

CITY           SKY/WX    TMP DP  RH WIND       PRES   REMARKS
GOODLAND       CLEAR     71  55  56 S15       29.90S
HAYS           CLEAR     75  55  50 S16       29.87S
HILL CITY      CLEAR     76  56  49 S12G20    29.85F
RUSSELL        CLEAR     74  60  61 S12       29.86S
$$

KSZ061>065-074>080-084>089-310600-
SOUTHWEST KANSAS

CITY           SKY/WX    TMP DP  RH WIND       PRES   REMARKS
DODGE CITY     PTCLDY    75  53  46 S18G25    29.93R
ELKHART          N/A     73  54  51 S15         N/A
GARDEN CITY    PTCLDY    76  52  43 S17G24    29.88S
GREAT BEND     MOCLDY    73  57  56 S14       29.88F
LIBERAL        PTCLDY    75  55  50 S12       29.93S
$$

KSZ066>073-081>083-090>101-310600-
SOUTHEAST KANSAS

CITY           SKY/WX    TMP DP  RH WIND       PRES   REMARKS
CHANUTE        CLEAR     75  67  76 S9        29.91S
COFFEYVILLE    CLEAR     75  71  87 S6        29.91S
HUTCHINSON     CLEAR     70  60  70 SE7       29.89S
MEDICINE LODGE   N/A     77  60  55 SE8       29.88F
NEWTON         CLEAR     70  57  64 SE8       29.93S
PARSONS        CLEAR     76  70  82 S5        29.92S
WICHITA INTL   CLEAR     75  62  64 SE9       29.90R
WICHITA JABRA  CLEAR     72  62  71 S8        29.90S
WINFIELD       CLEAR     75  68  78 S9        29.92R
$$

KSZ007>012-019>026-033>040-048>060-102>105-310600-
NORTHEAST KANSAS

CITY           SKY/WX    TMP DP  RH WIND       PRES   REMARKS
CONCORDIA      CLEAR     71  62  73 S9        29.85F
EMPORIA        CLEAR     71  60  68 E8        29.90S
LAWRENCE       PTCLDY    69  65  86 E3        29.89F
MANHATTAN      CLEAR     73  62  68 CALM      29.87S
OLATHE IND     CLEAR     73  66  78 SE9       29.91F
OLATHE EXE     CLEAR     72  67  84 SE7       29.90F
SALINA         CLEAR     74  59  59 S9        29.87S
TOPEKA BILLARD CLEAR     75  67  76 E5        29.88F
TOPEKA FORBES  CLEAR     73  65  75 E5        29.89S
$$



USA.gov is the U.S. government's official web portal to all federal, state and local government web resources and services.